When you browse on this site, cookies collect data to enhance your experience and personalize the content and advertising you see.
Visit our Privacy Policy to learn more. By continuing to use the site, you agree to this use of cookies and data.
  • In Deutschland
  • Länderverzeichnis
  • Für 7 Tage
  • Wassertemperatur
  • Wetterkarte
  • Widgets
  • user-avatar
    Anmelden

    Stündliche Wetter Haradok

    Heute, 2 Juni, Dienstag

    Zeit Temperatur Niederschläge Wind Luftdruck Luftfeuchtigkeit
    00:00 +8°C° 0 mm 6 m/S 746 mmHg 82%
    01:00 +8°C° 0 mm 6 m/S 746 mmHg 83%
    02:00 +8°C° 0 mm 6 m/S 746 mmHg 83%
    03:00 +8°C° 0.3 mm 6 m/S 746 mmHg 83%
    04:00 +7°C° 0.3 mm 6 m/S 745 mmHg 84%
    05:00 +6°C° 0.3 mm 7 m/S 745 mmHg 85%
    06:00 +8°C° 0.2 mm 6 m/S 745 mmHg 82%
    07:00 +8°C° 0.2 mm 6 m/S 745 mmHg 80%
    08:00 +9°C° 0.2 mm 6 m/S 745 mmHg 78%
    09:00 +9°C° 0.1 mm 6 m/S 745 mmHg 75%
    10:00 +10°C° 0.1 mm 6 m/S 745 mmHg 72%
    11:00 +11°C° 0.1 mm 6 m/S 745 mmHg 70%
    12:00 +10°C° 0.1 mm 7 m/S 745 mmHg 71%
    13:00 +10°C° 0.1 mm 7 m/S 745 mmHg 72%
    14:00 +10°C° 0.1 mm 7 m/S 745 mmHg 73%
    15:00 +10°C° 0.2 mm 7 m/S 744 mmHg 76%
    16:00 +9°C° 0.2 mm 7 m/S 744 mmHg 78%
    17:00 +9°C° 0.2 mm 6 m/S 744 mmHg 81%
    18:00 +9°C° 0.4 mm 6 m/S 744 mmHg 83%
    19:00 +8°C° 0.4 mm 6 m/S 744 mmHg 86%
    20:00 +8°C° 0.4 mm 5 m/S 744 mmHg 89%
    21:00 +8°C° 0.7 mm 5 m/S 744 mmHg 91%
    22:00 +8°C° 0.7 mm 5 m/S 743 mmHg 93%
    23:00 +8°C° 0.7 mm 5 m/S 743 mmHg 96%

    Morgen, 3 Juni, Mittwoch

    Zeit Temperatur Niederschläge Wind Luftdruck Luftfeuchtigkeit
    00:00 +8°C° 0.1 mm 4 m/S 743 mmHg 96%
    01:00 +8°C° 0.1 mm 4 m/S 743 mmHg 96%
    02:00 +9°C° 0.1 mm 3 m/S 743 mmHg 97%
    03:00 +9°C° 0 mm 3 m/S 743 mmHg 97%
    04:00 +9°C° 0 mm 3 m/S 743 mmHg 97%
    05:00 +9°C° 0 mm 2 m/S 742 mmHg 97%
    06:00 +10°C° 0 mm 3 m/S 743 mmHg 94%
    07:00 +11°C° 0 mm 3 m/S 743 mmHg 91%
    08:00 +12°C° 0 mm 3 m/S 743 mmHg 88%
    09:00 +13°C° 0 mm 3 m/S 743 mmHg 82%
    10:00 +14°C° 0 mm 3 m/S 743 mmHg 75%
    11:00 +16°C° 0 mm 3 m/S 742 mmHg 69%
    12:00 +17°C° 0 mm 3 m/S 742 mmHg 64%
    13:00 +18°C° 0 mm 3 m/S 742 mmHg 59%
    14:00 +19°C° 0 mm 3 m/S 742 mmHg 54%
    15:00 +19°C° 0.2 mm 3 m/S 742 mmHg 57%
    16:00 +18°C° 0.2 mm 3 m/S 741 mmHg 59%
    17:00 +18°C° 0.2 mm 3 m/S 741 mmHg 62%
    18:00 +16°C° 0.1 mm 2 m/S 741 mmHg 70%
    19:00 +15°C° 0.1 mm 2 m/S 741 mmHg 78%
    20:00 +13°C° 0.1 mm 2 m/S 741 mmHg 87%
    21:00 +12°C° 0 mm 2 m/S 740 mmHg 89%
    22:00 +10°C° 0 mm 2 m/S 740 mmHg 92%
    23:00 +9°C° 0 mm 2 m/S 740 mmHg 94%

    übermorgen, 4 Juni, Donnerstag

    Zeit Temperatur Niederschläge Wind Luftdruck Luftfeuchtigkeit
    00:00 +9°C° 0 mm 2 m/S 740 mmHg 94%
    01:00 +8°C° 0 mm 2 m/S 740 mmHg 94%
    02:00 +9°C° 0 mm 1 m/S 740 mmHg 94%
    03:00 +9°C° 0 mm 1 m/S 740 mmHg 94%
    04:00 +10°C° 0 mm 1 m/S 739 mmHg 93%
    05:00 +10°C° 0 mm 1 m/S 739 mmHg 93%
    06:00 +12°C° 0.1 mm 2 m/S 739 mmHg 88%
    07:00 +13°C° 0.1 mm 2 m/S 739 mmHg 83%
    08:00 +15°C° 0.1 mm 2 m/S 739 mmHg 79%
    09:00 +16°C° 0.7 mm 3 m/S 739 mmHg 77%
    10:00 +16°C° 0.7 mm 3 m/S 738 mmHg 76%
    11:00 +17°C° 0.7 mm 4 m/S 738 mmHg 75%
    12:00 +17°C° 0.4 mm 4 m/S 738 mmHg 72%
    13:00 +17°C° 0.4 mm 4 m/S 738 mmHg 69%
    14:00 +18°C° 0.4 mm 4 m/S 738 mmHg 67%
    15:00 +17°C° 0.3 mm 4 m/S 738 mmHg 69%
    16:00 +17°C° 0.3 mm 4 m/S 738 mmHg 71%
    17:00 +17°C° 0.3 mm 4 m/S 738 mmHg 74%
    18:00 +14°C° 0.4 mm 4 m/S 738 mmHg 80%
    19:00 +13°C° 0.4 mm 3 m/S 738 mmHg 85%
    20:00 +12°C° 0.4 mm 3 m/S 738 mmHg 91%
    21:00 +11°C° 0.1 mm 3 m/S 738 mmHg 92%
    22:00 +10°C° 0.1 mm 3 m/S 738 mmHg 94%
    23:00 +9°C° 0.1 mm 3 m/S 738 mmHg 95%

    5 Juni, Freitag

    Zeit Temperatur Niederschläge Wind Luftdruck Luftfeuchtigkeit
    00:00 +9°C° 0 mm 3 m/S 738 mmHg 96%
    01:00 +9°C° 0 mm 3 m/S 738 mmHg 96%
    02:00 +9°C° 0 mm 3 m/S 738 mmHg 96%
    03:00 +9°C° 0 mm 3 m/S 738 mmHg 97%
    04:00 +9°C° 0 mm 3 m/S 739 mmHg 97%
    05:00 +9°C° 0 mm 2 m/S 739 mmHg 97%
    06:00 +11°C° 0 mm 3 m/S 739 mmHg 93%
    07:00 +12°C° 0 mm 3 m/S 739 mmHg 89%
    08:00 +14°C° 0 mm 3 m/S 740 mmHg 85%
    09:00 +16°C° 0.2 mm 3 m/S 740 mmHg 79%
    10:00 +17°C° 0.2 mm 3 m/S 740 mmHg 73%
    11:00 +18°C° 0.2 mm 3 m/S 740 mmHg 67%
    12:00 +19°C° 0 mm 3 m/S 740 mmHg 62%
    13:00 +20°C° 0 mm 3 m/S 740 mmHg 58%
    14:00 +21°C° 0 mm 3 m/S 740 mmHg 54%
    15:00 +21°C° 0 mm 3 m/S 740 mmHg 55%
    16:00 +21°C° 0 mm 3 m/S 740 mmHg 57%
    17:00 +21°C° 0 mm 3 m/S 740 mmHg 59%
    18:00 +20°C° 0 mm 3 m/S 740 mmHg 67%
    19:00 +18°C° 0 mm 3 m/S 740 mmHg 76%
    20:00 +17°C° 0 mm 3 m/S 739 mmHg 85%
    21:00 +16°C° 0 mm 3 m/S 740 mmHg 89%
    22:00 +14°C° 0 mm 3 m/S 740 mmHg 92%
    23:00 +14°C° 0 mm 3 m/S 740 mmHg 96%

    6 Juni, Samstag

    Zeit Temperatur Niederschläge Wind Luftdruck Luftfeuchtigkeit
    00:00 +14°C° 0 mm 3 m/S 740 mmHg 96%
    01:00 +15°C° 0 mm 2 m/S 739 mmHg 97%
    02:00 +15°C° 0 mm 2 m/S 739 mmHg 98%
    03:00 +15°C° 0 mm 2 m/S 740 mmHg 97%
    04:00 +15°C° 0 mm 2 m/S 740 mmHg 97%
    05:00 +16°C° 0 mm 2 m/S 740 mmHg 97%
    06:00 +17°C° 0 mm 2 m/S 740 mmHg 91%
    07:00 +19°C° 0 mm 3 m/S 740 mmHg 86%
    08:00 +21°C° 0 mm 3 m/S 740 mmHg 80%
    09:00 +22°C° 0.2 mm 4 m/S 740 mmHg 76%
    10:00 +23°C° 0.2 mm 4 m/S 740 mmHg 71%
    11:00 +26°C° 0.2 mm 5 m/S 740 mmHg 67%
    12:00 +26°C° 0.8 mm 5 m/S 739 mmHg 69%
    13:00 +26°C° 0.8 mm 6 m/S 739 mmHg 70%
    14:00 +26°C° 0.8 mm 6 m/S 739 mmHg 72%
    15:00 +25°C° 1 mm 5 m/S 739 mmHg 78%
    16:00 +22°C° 1 mm 5 m/S 739 mmHg 83%
    17:00 +21°C° 1 mm 4 m/S 739 mmHg 89%
    18:00 +20°C° 0.2 mm 4 m/S 740 mmHg 90%
    19:00 +19°C° 0.2 mm 4 m/S 740 mmHg 91%
    20:00 +18°C° 0.2 mm 3 m/S 740 mmHg 91%
    21:00 +16°C° 0 mm 3 m/S 741 mmHg 92%
    22:00 +13°C° 0 mm 3 m/S 742 mmHg 93%
    23:00 +12°C° 0 mm 3 m/S 743 mmHg 95%

    7 Juni, Sonntag

    Zeit Temperatur Niederschläge Wind Luftdruck Luftfeuchtigkeit
    00:00 +12°C° 0 mm 2 m/S 743 mmHg 95%
    01:00 +10°C° 0 mm 2 m/S 744 mmHg 96%
    02:00 +11°C° 0 mm 1 m/S 744 mmHg 96%
    03:00 +11°C° 0 mm 1 m/S 745 mmHg 95%
    04:00 +11°C° 0 mm 1 m/S 745 mmHg 95%
    05:00 +12°C° 0 mm 1 m/S 746 mmHg 94%
    06:00 +13°C° 0 mm 2 m/S 746 mmHg 88%
    07:00 +15°C° 0 mm 2 m/S 746 mmHg 83%
    08:00 +17°C° 0 mm 2 m/S 747 mmHg 78%
    09:00 +18°C° 0 mm 2 m/S 747 mmHg 70%
    10:00 +20°C° 0 mm 2 m/S 748 mmHg 62%
    11:00 +21°C° 0 mm 2 m/S 748 mmHg 54%
    12:00 +23°C° 0 mm 2 m/S 748 mmHg 53%
    13:00 +23°C° 0 mm 2 m/S 748 mmHg 51%
    14:00 +24°C° 0 mm 2 m/S 748 mmHg 50%
    15:00 +24°C° 0 mm 2 m/S 748 mmHg 52%
    16:00 +24°C° 0 mm 1 m/S 748 mmHg 54%
    17:00 +23°C° 0 mm 1 m/S 748 mmHg 56%
    18:00 +22°C° 0 mm 1 m/S 748 mmHg 63%
    19:00 +20°C° 0 mm 1 m/S 748 mmHg 70%
    20:00 +19°C° 0 mm 1 m/S 748 mmHg 77%
    21:00 +18°C° 0 mm 1 m/S 748 mmHg 78%
    22:00 +16°C° 0 mm 1 m/S 749 mmHg 80%
    23:00 +15°C° 0 mm 1 m/S 749 mmHg 82%
    Mehr zeigen